Home   Weather   Longyearbyen   Past weeks

Flag for Norway Past Weather in Longyearbyen, Svalbard, Norway — Yesterday and Last 2 Weeks

Now
45 °F

Passing clouds.


Feels Like: 37 °F
Forecast: 46 / 51 °F
Wind: 16 mph from West

Location: Svalbard Lufthavn

Current Time: Jul 24, 2017 at 3:02:11 pm

Latest Report: Jul 24, 2017 at 1:50 pm


Visibility: N/A

Pressure: 30.04 "Hg

Humidity: 81%

Dew Point: 39 °F

Location of LongyearbyenLocation

Past Weather in Longyearbyen — Graph

°F

Longyearbyen Temperature Yesterday

Maximum temperature yesterday: 48 °F (at 12:50 am)
Minimum temperature yesterday: 41 °F (at 10:50 pm)
Average temperature yesterday: 44 °F

High & Low Weather Summary for the Past Weeks

 TemperatureHumidityPressure
High55 °F (Jul 17, 7:50 pm)100% (Jul 19, 3:50 am)30.15 "Hg (Jul 19, 3:50 am)
Low41 °F (Jul 9, 1:20 pm)50% (Jul 16, 7:20 am)29.47 "Hg (Jul 17, 5:50 am)
Average46 °F79%29.80 "Hg
* Reported Jul 9 1:20 pm — Jul 24 1:20 pm, Longyearbyen. Weather by CustomWeather, © 2017

Note: Actual official high and low records may vary slightly from our data, if they occured in-between our weather recording intervals... More about our weather records

Advertising

Longyearbyen Weather History for the Previous 24 Hours

Scroll right to see more
 ConditionsComfort  
Time TempWeatherWind HumidityBarometerVisibility
1:20 pm
Mon, Jul 24
45 °FScattered clouds.15 mph81%30.04 "HgN/A
12:20 pm45 °FScattered clouds.14 mph81%30.07 "HgN/A
11:50 am45 °FScattered clouds.14 mph81%30.07 "HgN/A
11:20 am45 °FScattered clouds.15 mph81%30.07 "HgN/A
10:50 am45 °FScattered clouds.12 mph81%30.07 "HgN/A
10:20 am45 °FScattered clouds.12 mph76%30.07 "HgN/A
9:50 am45 °FScattered clouds.12 mph81%30.09 "HgN/A
9:20 am43 °FPartly sunny.13 mph81%30.09 "HgN/A
8:50 am43 °FPartly sunny.14 mph87%30.09 "HgN/A
8:20 am43 °FPartly sunny.15 mph81%30.09 "HgN/A
7:50 am43 °FScattered clouds.15 mph81%30.09 "HgN/A
6:50 am43 °FPartly sunny.15 mph87%30.09 "HgN/A
5:50 am43 °FPartly sunny.15 mph87%30.09 "HgN/A
4:50 am43 °FPartly sunny.16 mph87%30.09 "HgN/A
3:50 am43 °FPartly sunny.15 mph87%30.12 "HgN/A
2:50 am41 °FScattered clouds.16 mph87%30.12 "HgN/A
1:50 am41 °FScattered clouds.20 mph87%30.12 "HgN/A
1:20 am41 °FScattered clouds.17 mph87%30.12 "HgN/A
12:50 am41 °FScattered clouds.17 mph87%30.12 "HgN/A
12:20 am43 °FScattered clouds.18 mph81%30.12 "HgN/A
11:50 pm
Sun, Jul 23
41 °FScattered clouds.18 mph87%30.12 "HgN/A
11:20 pm41 °FScattered clouds.15 mph87%30.12 "HgN/A
10:50 pm41 °FScattered clouds.15 mph87%30.12 "HgN/A
9:50 pm43 °FScattered clouds.12 mph87%30.12 "HgN/A
8:50 pm43 °FPassing clouds.13 mph87%30.12 "HgN/A
7:50 pm43 °FScattered clouds.10 mph87%30.12 "HgN/A
6:50 pm43 °FScattered clouds.10 mph87%30.12 "HgN/A
5:50 pm43 °FScattered clouds.13 mph87%30.12 "HgN/A
4:50 pm43 °FBroken clouds.15 mph87%30.12 "HgN/A
3:50 pm43 °FScattered clouds.13 mph87%30.15 "HgN/A
Weather by CustomWeather, © 2017

See weather overviewHow to use our weather pages